Columbia Owens, SC

8:36 PM EST on November 11, 2019 (GMT -0500)
Columbia Owens Downtown

Weather History for KCUB - September, 2019

Change the Weather History Date:

Wednesday, September 4, 2019

  Actual Average Record
Temperature  
Mean Temperature 83 °F 79 °F  
Max Temperature 92 °F 88 °F 97 °F (2015)
Min Temperature 74 °F 69 °F 61 °F (2017)
Degree Days  
Heating Degree Days 0 0  
Month to date heating degree days 0 0  
Since 1 July heating degree days 0 0  
Cooling Degree Days 18 14  
Month to date cooling degree days 71 56  
Year to date cooling degree days 2194 1874  
Growing Degree Days 32 (Base 50)    
Moisture  
Dew Point 70 °F    
Average Humidity 70    
Maximum Humidity 87    
Minimum Humidity 52    
Precipitation  
Precipitation 0.00 in 0.15 in 1.40 in (2003)
Month to date precipitation 0.48 0.57  
Year to date precipitation 23.66 32.42  
Sea Level Pressure  
Sea Level Pressure 29.94 in    
Wind  
Wind Speed 5 mph (ENE)    
Max Wind Speed 12 mph    
Max Gust Speed 20 mph    
Visibility 10 miles    
Events      
T = Trace of Precipitation, MM = Missing Value Source: NWS Daily Summary

Daily Weather History Graph

Daily Weather History Graph

Search for Another Location

Airport or City:

Astronomy

Sep. 04, 2019 Rise Set
Actual Time 6:59 AM EDT 7:46 PM EDT
Civil Twilight 6:34 AM EDT 8:11 PM EDT
Nautical Twilight 6:04 AM EDT 8:41 PM EDT
Astronomical Twilight 5:33 AM EDT 9:11 PM EDT
Moon 12:43 PM EDT (9/4) 11:36 PM EDT (9/4)
Length of Visible Light 13h 37m
Length of Day
12h 46m
Waxing Crescent, 34% of the Moon is Illuminated
Sep 4
Waxing Crescent
Sep 5
First Quarter
Sep 14
Full
Sep 21
Last Quarter
Sep 28
New

Hourly Weather History & Observations

Time (EDT) Temp. Heat Index Dew Point Humidity Pressure Visibility Wind Dir Wind Speed Gust Speed Precip Events Conditions
12:53 AM 77.0 °F - 69.1 °F 76% 29.96 in 10.0 mi Calm Calm - N/A   Clear
2:53 AM 75.0 °F - 69.1 °F 82% 29.95 in 10.0 mi ENE 3.5 mph - N/A   Clear
3:53 AM 75.0 °F - 69.1 °F 82% 29.96 in 10.0 mi Calm Calm - N/A   Clear
4:53 AM 73.9 °F - 70.0 °F 87% 29.95 in 10.0 mi ENE 3.5 mph - N/A   Clear
5:53 AM 73.9 °F - 70.0 °F 87% 29.96 in 10.0 mi Variable 3.5 mph - N/A   Clear
6:53 AM 73.9 °F - 70.0 °F 87% 29.97 in 10.0 mi Calm Calm - N/A   Clear
7:53 AM 75.9 °F - 71.1 °F 85% 29.99 in 10.0 mi Variable 4.6 mph - N/A   Clear
8:15 AM 75.9 °F - 71.1 °F 85% 30.01 in 10.0 mi Variable 5.8 mph - N/A   Scattered Clouds
8:27 AM 75.9 °F - 71.1 °F 85% 30.01 in 10.0 mi Variable 5.8 mph - N/A   Mostly Cloudy
8:41 AM 75.9 °F - 71.1 °F 85% 30.00 in 10.0 mi Variable 3.5 mph - N/A   Scattered Clouds
8:53 AM 77.0 °F - 71.1 °F 82% 30.00 in 10.0 mi Variable 3.5 mph - N/A   Partly Cloudy
9:53 AM 81.0 °F 84.9 °F 71.1 °F 72% 29.99 in 10.0 mi Variable 6.9 mph - N/A   Clear
10:53 AM 84.9 °F 90.1 °F 71.1 °F 63% 29.98 in 10.0 mi Variable 4.6 mph - N/A   Clear
11:53 AM 87.1 °F 92.8 °F 71.1 °F 59% 29.98 in 10.0 mi Variable 6.9 mph - N/A   Partly Cloudy
12:53 PM 88.0 °F 93.8 °F 71.1 °F 57% 29.96 in 10.0 mi NE 8.1 mph - N/A   Mostly Cloudy
1:53 PM 89.1 °F 96.0 °F 72.0 °F 57% 29.95 in 10.0 mi Variable 5.8 mph - N/A   Mostly Cloudy
2:53 PM 89.1 °F 94.1 °F 70.0 °F 53% 29.92 in 10.0 mi Variable 6.9 mph - N/A   Partly Cloudy
3:53 PM 90.0 °F 95.4 °F 70.0 °F 52% 29.90 in 10.0 mi Variable 5.8 mph 16.1 mph N/A   Clear
4:53 PM 91.0 °F 97.6 °F 71.1 °F 52% 29.90 in 10.0 mi Variable 6.9 mph - N/A   Partly Cloudy
5:53 PM 89.1 °F 95.0 °F 71.1 °F 55% 29.89 in 10.0 mi Variable 5.8 mph 19.6 mph N/A   Scattered Clouds
6:53 PM 87.1 °F 92.8 °F 71.1 °F 59% 29.88 in 10.0 mi Variable 4.6 mph - N/A   Clear
7:53 PM 84.9 °F 90.1 °F 71.1 °F 63% 29.88 in 10.0 mi East 5.8 mph - N/A   Clear
8:53 PM 82.9 °F 87.0 °F 70.0 °F 65% 29.89 in 10.0 mi East 6.9 mph - N/A   Clear
9:53 PM 82.0 °F 85.5 °F 69.1 °F 65% 29.88 in 10.0 mi Variable 5.8 mph - N/A   Clear
10:53 PM 81.0 °F 83.8 °F 68.0 °F 65% 29.87 in 10.0 mi Variable 6.9 mph - N/A   Clear
11:53 PM 81.0 °F 83.0 °F 66.0 °F 60% 29.86 in 10.0 mi ENE 6.9 mph - N/A   Clear